| time (UTC) | temp F | wind direction | speed MPH | gust MPH | rain 1hr in | rain 24hr in | rain mn in | humidity % | barometer mb |
| 20260904064433 | 52 | 143 | 0.0 | 0.0 | 0.00 | 0.00 | 0.00 | 46 | 1018.3 |
| 20260904063432 | 53 | 161 | 0.0 | 4.0 | 0.00 | 0.00 | 0.00 | 45 | 1018.3 |
| 20260904062455 | 53 | 155 | 0.0 | 0.0 | 0.00 | 0.00 | 0.00 | 45 | 1018.1 |
| 20260904061514 | 53 | 159 | 0.0 | 6.0 | 0.00 | 0.00 | 0.00 | 46 | 1018.0 |
| 20260904055346 | 52 | 154 | 0.0 | 8.0 | 0.00 | 0.00 | 0.00 | 51 | 1017.9 |
| 20260904054411 | 51 | 159 | 2.0 | 0.0 | 0.00 | 0.00 | 0.00 | 54 | 1017.8 |
| 20260904053405 | 51 | 145 | 0.0 | 6.0 | 0.00 | 0.00 | 0.00 | 56 | 1017.8 |
| 20260904051250 | 49 | 158 | 0.0 | 0.0 | 0.00 | 0.00 | 0.00 | 62 | 1017.8 |
| 20260904045037 | 50 | 139 | 1.0 | 7.0 | 0.00 | 0.00 | 0.00 | 59 | 1017.9 |
| 20260904042905 | 51 | 126 | 0.0 | 0.0 | 0.00 | 0.00 | 0.00 | 57 | 1018.0 |
| 20260904041843 | 51 | 133 | 0.0 | 0.0 | 0.00 | 0.00 | 0.00 | 57 | 1017.9 |
| 20260904040905 | 51 | 134 | 0.0 | 0.0 | 0.00 | 0.00 | 0.00 | 55 | 1018.0 |
| 20260904035855 | 52 | 137 | 0.0 | 0.0 | 0.00 | 0.00 | 0.00 | 54 | 1017.8 |
| 20260904034832 | 53 | 136 | 0.0 | 0.0 | 0.00 | 0.00 | 0.00 | 53 | 1017.8 |
| 20260904033831 | 53 | 136 | 0.0 | 0.0 | 0.00 | 0.00 | 0.00 | 52 | 1017.7 |
| 20260904031724 | 56 | 146 | 0.0 | 0.0 | 0.00 | 0.00 | 0.00 | 47 | 1017.8 |
| 20260904030704 | 57 | 169 | 0.0 | 6.0 | 0.00 | 0.00 | 0.00 | 45 | 1017.7 |
| 20260904025718 | 58 | 155 | 0.0 | 6.0 | 0.00 | 0.00 | 0.00 | 43 | 1017.7 |
| 20260904024644 | 58 | 149 | 0.0 | 0.0 | 0.00 | 0.00 | 0.00 | 42 | 1017.6 |
| 20260904023649 | 58 | 151 | 2.0 | 0.0 | 0.00 | 0.00 | 0.00 | 41 | 1017.5 |
| 20260904022644 | 58 | 156 | 0.0 | 17.0 | 0.00 | 0.00 | 0.00 | 40 | 1017.4 |
| 20260904021643 | 58 | 148 | 0.0 | 0.0 | 0.00 | 0.00 | 0.00 | 38 | 1017.4 |
| 20260904020614 | 59 | 156 | 0.0 | 0.0 | 0.00 | 0.00 | 0.00 | 37 | 1017.5 |
| 20260904015609 | 60 | 153 | 0.0 | 0.0 | 0.00 | 0.00 | 0.00 | 37 | 1017.4 |
| 20260904014557 | 61 | 156 | 0.0 | 0.0 | 0.00 | 0.00 | 0.00 | 33 | 1017.3 |
| 20260904013602 | 62 | 146 | 0.0 | 1.0 | 0.00 | 0.00 | 0.00 | 31 | 1017.3 |
| 20260904012538 | 63 | 150 | 0.0 | 0.0 | 0.00 | 0.00 | 0.00 | 30 | 1017.2 |
| 20260904010441 | 64 | 150 | 3.0 | 15.0 | 0.00 | 0.00 | 0.00 | 27 | 1017.4 |
| 20260904005459 | 65 | 167 | 2.0 | 6.0 | 0.00 | 0.00 | 0.00 | 26 | 1017.4 |
| 20260904004521 | 66 | 95 | 0.0 | 0.0 | 0.00 | 0.00 | 0.00 | 25 | 1017.5 |
| 20260904003458 | 66 | 165 | 2.0 | 11.0 | 0.00 | 0.00 | 0.00 | 25 | 1017.5 |
| 20260904002438 | 67 | 164 | 1.0 | 6.0 | 0.00 | 0.00 | 0.00 | 24 | 1017.6 |
| 20260904001446 | 67 | 160 | 4.0 | 0.0 | 0.00 | 0.00 | 0.00 | 23 | 1017.6 |
| 20260904000435 | 68 | 148 | 3.0 | 13.0 | 0.00 | 0.00 | 0.00 | 21 | 1017.6 |
| 20260903234318 | 69 | 161 | 4.0 | 11.0 | 0.00 | 0.00 | 0.00 | 20 | 1017.7 |
| 20260903233336 | 69 | 167 | 3.0 | 13.0 | 0.00 | 0.00 | 0.00 | 21 | 1017.9 |
| 20260903232354 | 70 | 171 | 3.0 | 13.0 | 0.00 | 0.00 | 0.00 | 20 | 1017.8 |
| 20260903231419 | 69 | 163 | 4.0 | 23.0 | 0.00 | 0.00 | 0.00 | 20 | 1018.0 |
| 20260903230436 | 69 | 196 | 5.0 | 23.0 | 0.00 | 0.00 | 0.00 | 19 | 1018.0 |
| 20260903225435 | 69 | 97 | 5.0 | 16.0 | 0.00 | 0.00 | 0.00 | 19 | 1018.4 |
| 20260903223258 | 68 | 184 | 4.0 | 17.0 | 0.00 | 0.00 | 0.00 | 20 | 1018.6 |
| 20260903222308 | 68 | 161 | 3.0 | 10.0 | 0.00 | 0.00 | 0.00 | 21 | 1018.6 |
| 20260903221309 | 67 | 158 | 5.0 | 19.0 | 0.00 | 0.00 | 0.00 | 21 | 1018.8 |
| 20260903220315 | 67 | 207 | 4.0 | 14.0 | 0.00 | 0.00 | 0.00 | 23 | 1018.9 |
| 20260903215253 | 67 | 156 | 5.0 | 17.0 | 0.00 | 0.00 | 0.00 | 20 | 1018.9 |
| 20260903214254 | 68 | 126 | 3.0 | 17.0 | 0.00 | 0.00 | 0.00 | 22 | 1019.1 |
| 20260903213255 | 68 | 198 | 3.0 | 11.0 | 0.00 | 0.00 | 0.00 | 22 | 1019.3 |
| 20260903212259 | 69 | 170 | 4.0 | 15.0 | 0.00 | 0.00 | 0.00 | 22 | 1019.2 |
| 20260903211307 | 68 | 182 | 3.0 | 13.0 | 0.00 | 0.00 | 0.00 | 22 | 1019.2 |
| 20260903210234 | 68 | 101 | 1.0 | 0.0 | 0.00 | 0.00 | 0.00 | 22 | 1019.3 |
| 20260903205254 | 68 | 105 | 4.0 | 18.0 | 0.00 | 0.00 | 0.00 | 21 | 1019.5 |
| 20260903204227 | 68 | 178 | 5.0 | 17.0 | 0.00 | 0.00 | 0.00 | 22 | 1019.7 |
| 20260903203218 | 68 | 161 | 2.0 | 11.0 | 0.00 | 0.00 | 0.00 | 21 | 1019.7 |
| 20260903202216 | 68 | 77 | 1.0 | 8.0 | 0.00 | 0.00 | 0.00 | 22 | 1019.8 |
| 20260903201233 | 68 | 233 | 2.0 | 3.0 | 0.00 | 0.00 | 0.00 | 23 | 1019.8 |
| 20260903200230 | 68 | 81 | 3.0 | 10.0 | 0.00 | 0.00 | 0.00 | 22 | 1019.8 |
| 20260903195246 | 67 | 161 | 4.0 | 11.0 | 0.00 | 0.00 | 0.00 | 24 | 1020.1 |
| 20260903194302 | 67 | 188 | 3.0 | 13.0 | 0.00 | 0.00 | 0.00 | 21 | 1019.9 |
| 20260903193303 | 67 | 215 | 2.0 | 13.0 | 0.00 | 0.00 | 0.00 | 23 | 1020.1 |
| 20260903192316 | 67 | 181 | 2.0 | 0.0 | 0.00 | 0.00 | 0.00 | 23 | 1020.2 |
| 20260903191247 | 66 | 209 | 3.0 | 10.0 | 0.00 | 0.00 | 0.00 | 21 | 1020.3 |
| 20260903190213 | 65 | 161 | 3.0 | 17.0 | 0.00 | 0.00 | 0.00 | 24 | 1020.5 |
| 20260903185143 | 65 | 146 | 5.0 | 15.0 | 0.00 | 0.00 | 0.00 | 21 | 1020.7 |
| 20260903184112 | 65 | 143 | 5.0 | 18.0 | 0.00 | 0.00 | 0.00 | 23 | 1020.7 |
| 20260903181952 | 65 | 191 | 4.0 | 12.0 | 0.00 | 0.00 | 0.00 | 26 | 1021.0 |
| 20260903175735 | 65 | 146 | 1.0 | 12.0 | 0.00 | 0.00 | 0.00 | 22 | 1021.2 |
| 20260903174755 | 64 | 218 | 1.0 | 3.0 | 0.00 | 0.00 | 0.00 | 24 | 1021.2 |
| 20260903173804 | 64 | 241 | 4.0 | 15.0 | 0.00 | 0.00 | 0.00 | 21 | 1021.2 |
| 20260903171649 | 64 | 182 | 2.0 | 14.0 | 0.00 | 0.00 | 0.00 | 23 | 1021.3 |
| 20260903165508 | 63 | 155 | 3.0 | 13.0 | 0.00 | 0.00 | 0.00 | 22 | 1021.5 |
| 20260903164436 | 62 | 261 | 2.0 | 15.0 | 0.00 | 0.00 | 0.00 | 22 | 1021.5 |
| 20260903163419 | 61 | 211 | 1.0 | 15.0 | 0.00 | 0.00 | 0.00 | 25 | 1021.5 |
| 20260903162437 | 60 | 225 | 3.0 | 12.0 | 0.00 | 0.00 | 0.00 | 24 | 1021.5 |
| 20260903161455 | 59 | 196 | 0.0 | 9.0 | 0.00 | 0.00 | 0.00 | 28 | 1021.5 |
| 20260903160520 | 59 | 169 | 3.0 | 15.0 | 0.00 | 0.00 | 0.00 | 25 | 1021.5 |
| 20260903155539 | 59 | 167 | 5.0 | 15.0 | 0.00 | 0.00 | 0.00 | 27 | 1021.4 |
| 20260903153418 | 60 | 170 | 2.0 | 11.0 | 0.00 | 0.00 | 0.00 | 27 | 1021.5 |
| 20260903152411 | 60 | 151 | 3.0 | 11.0 | 0.00 | 0.00 | 0.00 | 26 | 1021.6 |
| 20260903150328 | 58 | 155 | 0.0 | 0.0 | 0.00 | 0.00 | 0.00 | 27 | 1021.6 |
| 20260903144207 | 55 | 167 | 3.0 | 13.0 | 0.00 | 0.00 | 0.00 | 30 | 1021.4 |
| 20260903143139 | 54 | 196 | 1.0 | 9.0 | 0.00 | 0.00 | 0.00 | 35 | 1021.3 |
| 20260903141046 | 49 | 140 | 0.0 | 0.0 | 0.00 | 0.00 | 0.00 | 38 | 1021.2 |
| 20260903133822 | 46 | 159 | 1.0 | 7.0 | 0.00 | 0.00 | 0.00 | 39 | 1021.2 |
| 20260903132802 | 46 | 140 | 0.0 | 7.0 | 0.00 | 0.00 | 0.00 | 37 | 1021.0 |
| 20260903131753 | 46 | 151 | 0.0 | 10.0 | 0.00 | 0.00 | 0.00 | 37 | 1020.9 |
| 20260903130743 | 46 | 168 | 0.0 | 7.0 | 0.00 | 0.00 | 0.00 | 37 | 1020.9 |
| 20260903125747 | 46 | 152 | 0.0 | 10.0 | 0.00 | 0.00 | 0.00 | 36 | 1020.7 |
| 20260903124713 | 46 | 153 | 0.0 | 0.0 | 0.00 | 0.00 | 0.00 | 36 | 1020.7 |
| 20260903123727 | 46 | 146 | 0.0 | 0.0 | 0.00 | 0.00 | 0.00 | 37 | 1020.5 |
| 20260903122718 | 47 | 171 | 0.0 | 6.0 | 0.00 | 0.00 | 0.00 | 37 | 1020.7 |
| 20260903121723 | 47 | 152 | 0.0 | 0.0 | 0.00 | 0.00 | 0.00 | 38 | 1020.5 |
| 20260903120740 | 48 | 150 | 0.0 | 5.0 | 0.00 | 0.00 | 0.00 | 37 | 1020.3 |
| 20260903115733 | 49 | 156 | 1.0 | 0.0 | 0.00 | 0.00 | 0.00 | 31 | 1020.1 |
| 20260903114756 | 50 | 146 | 0.0 | 0.0 | 0.00 | 0.00 | 0.00 | 30 | 1020.0 |
| 20260903111447 | 51 | 204 | 0.0 | 0.0 | 0.00 | 0.00 | 0.00 | 25 | 1019.9 |
| 20260903110429 | 51 | 148 | 2.0 | 19.0 | 0.00 | 0.00 | 0.00 | 26 | 1019.8 |
| 20260903103136 | 48 | 190 | 0.0 | 0.0 | 0.00 | 0.00 | 0.00 | 29 | 1019.9 |
| 20260903095945 | 46 | 168 | 0.0 | 0.0 | 0.00 | 0.00 | 0.00 | 43 | 1019.9 |
| 20260903094932 | 46 | 140 | 0.0 | 2.0 | 0.00 | 0.00 | 0.00 | 40 | 1020.1 |
| 20260903093949 | 47 | 153 | 0.0 | 0.0 | 0.00 | 0.00 | 0.00 | 41 | 1020.1 |
| 20260903093003 | 47 | 164 | 0.0 | 0.0 | 0.00 | 0.00 | 0.00 | 43 | 1020.0 |
| 20260903092000 | 47 | 154 | 0.0 | 0.0 | 0.00 | 0.00 | 0.00 | 41 | 1020.1 |
| 20260903085757 | 48 | 164 | 0.0 | 0.0 | 0.00 | 0.00 | 0.00 | 35 | 1020.1 |
| 20260903084731 | 48 | 159 | 0.0 | 0.0 | 0.00 | 0.00 | 0.00 | 39 | 1020.0 |
| 20260903083713 | 49 | 173 | 0.0 | 0.0 | 0.00 | 0.00 | 0.00 | 40 | 1020.1 |
| 20260903082654 | 49 | 143 | 0.0 | 0.0 | 0.00 | 0.00 | 0.00 | 30 | 1020.2 |
| 20260903081636 | 50 | 146 | 0.0 | 0.0 | 0.00 | 0.00 | 0.00 | 32 | 1020.0 |
| 20260903080618 | 51 | 165 | 0.0 | 0.0 | 0.00 | 0.00 | 0.00 | 30 | 1019.9 |
| 20260903075636 | 52 | 155 | 0.0 | 0.0 | 0.00 | 0.00 | 0.00 | 27 | 1019.8 |
| 20260903074602 | 52 | 209 | 0.0 | 0.0 | 0.00 | 0.00 | 0.00 | 26 | 1019.9 |
| 20260903073554 | 53 | 174 | 0.0 | 4.0 | 0.00 | 0.00 | 0.00 | 28 | 1019.8 |
| 20260903072611 | 53 | 163 | 1.0 | 0.0 | 0.00 | 0.00 | 0.00 | 26 | 1019.8 |
| 20260903071622 | 53 | 169 | 2.0 | 9.0 | 0.00 | 0.00 | 0.00 | 26 | 1019.7 |
| 20260903070640 | 53 | 179 | 2.0 | 11.0 | 0.00 | 0.00 | 0.00 | 27 | 1019.6 |
| 20260903065652 | 53 | 165 | 0.0 | 0.0 | 0.00 | 0.00 | 0.00 | 27 | 1019.7 |